Вернуться в каталог

STARLINK-2594

АктивенСвязьVLEO
NORAD 48388·PAYLOAD·🇺🇸 United States

Запущен May 4, 2021 с Cape Canaveral Space Force Station

Loading…

Ближайшие Пролёты (ближайшие 24 часа)

TLE

СвежийSource: CelesTrak SupGP

Эпоха: Sep 15, 2026, 01:25 UTC

1 48388C 21038AM  26258.05951389 -.00014971  00000+0 -48106-3 0  2581
2 48388  53.1604 184.0407 0001450  88.2098 318.7109 15.31732681    18

Отслеживайте STARLINK-2594 в реальном времени с AllMySat

Download on the App Store